Flag for Germany Weather past 2 weeks in Herzogenrath, North Rhine-Westphalia, Germany

Now
31 °F

Fog.


Feels Like: 27 °F
Forecast: 35 / 41 °F
Wind: 3 mph from Southwest

Location: Maastricht Airport Zuid Limburg

Current Time: Jan 25, 2015 at 4:59:47 AM

Latest Report: Jan 25, 2015 at 3:00 AM


Visibility: 3 mi

Pressure: 30.40 "Hg

Humidity: 98%

Dew point: 30 °F

Location of HerzogenrathLocation

Historic Weather in Herzogenrath — Graph

°F

Herzogenrath temperature yesterday

Maximum temperature yesterday: 36 °F (at 4:00 PM)
Minimum temperature yesterday: 30 °F (at 3:00 AM)
Average temperature yesterday: 33 °F

Past Weeks' High & Low Weather Summary

 TemperatureHumidityPressure
High56 °F (Jan 10, 3:00 AM)100% (Jan 19, 7:00 PM)30.40 "Hg (Jan 19, 7:00 PM)
Low28 °F (Jan 21, 7:00 AM)61% (Jan 10, 9:00 PM)29.41 "Hg (Jan 15, 3:00 PM)
Average38 °F84%29.94 "Hg
* Reported Jan 10 3:00 AM — Jan 25 3:00 AM, Herzogenrath, Weather by CustomWeather, © 2014

Note: Actual official high and low records may vary slightly from our data, if they occured in-between our weather recording intervals... More about our weather records

Advertising

Herzogenrath weather history for previous 24 hours

 ConditionsComfort  
Time TempWeatherWind HumidityBarometerVisibility
3:00 AM
Jan 25
31 °FFog.3 mph98%30.40 "Hg3 mi
2:00 AM29 °FFog.2 mph100%30.39 "Hg4 mi
1:00 AM31 °FFog.2 mph97%30.38 "Hg5 mi
12:00 AM32 °FFog.2 mph97%30.38 "Hg5 mi
11:00 PM
Jan 24
33 °FPassing clouds.2 mph96%30.36 "Hg5 mi
10:00 PM34 °FFog.2 mph96%30.35 "Hg5 mi
9:00 PM34 °FPassing clouds.2 mph95%30.33 "Hg6 mi
8:00 PM35 °FPassing clouds.2 mph93%30.32 "Hg7 mi
7:00 PM36 °FOvercast.2 mph93%30.29 "Hg7 mi
6:00 PM36 °FFog.3 mph92%30.26 "Hg4 mi
5:00 PM36 °FFog.1 mph97%30.23 "Hg3 mi
4:00 PM36 °FFog.2 mph95%30.20 "Hg4 mi
3:00 PM36 °FFog.2 mph96%30.17 "Hg4 mi
2:00 PM35 °FFog.3 mph100%30.15 "Hg3 mi
1:00 PM32 °FLow clouds.3 mph100%30.13 "Hg2 mi
12:00 PM32 °FLight rain. Low clouds.5 mph99%30.12 "Hg2 mi
11:00 AM31 °FLight snow. Low clouds.6 mph100%30.11 "Hg2 mi
10:00 AM32 °FSnow. Low clouds.6 mph100%30.10 "Hg1 mi
9:00 AM31 °FSnow. Low clouds.6 mph100%30.09 "Hg1 mi
8:00 AM31 °FSnow showers. Low clouds.8 mph99%30.09 "Hg1 mi
7:00 AM33 °FFog.7 mph83%30.09 "Hg4 mi
6:00 AM32 °FFog.7 mph84%30.11 "Hg4 mi
5:00 AM31 °FFog.7 mph87%30.13 "Hg3 mi
4:00 AM31 °FFog.7 mph88%30.17 "Hg3 mi
Weather by CustomWeather, © 2014

See weather overviewHow to use our weather pages